Location: Capel Gartheli
(52.1833°N, 4.0667°W)
Time: 11:55:25
(UTC+00:00)

Cosmos-2242 - Pass Details

Date: 18 February 2020
Orbit: 592 x 616 km, 82.5° (Epoch: 08 April)

Event Time Altitude Azimuth Distance (km) Brightness Sun altitude
Exits shadow 04:41:28 33° 1° (N) 1,028 4.2 -25.9°
Drops below altitude 10° 04:43:53 10° 8° (N) 1,949 5.8 -25.5°
Sets 04:46:07 0° 10° (N) 2,853 6.8 -25.2°
